Wind_Speed
47 47 46 46 45 44 44 43 41 41 40 39 39 39 38 38 38 39 38 39 39 39 39 38 38 38 38 38 38 38 37 37 37 36 36 36 36 37 37 37 37 37 37
47 47 47 46 45 45 44 44 43 42 42 41 40 40 39 39 39 40 41 41 41 41 40 41 41 41 40 40 39 39 39 38 38 38 38 38 37 38 38 38 39 39 38
47 48 48 47 47 46 45 44 44 43 43 42 42 42 42 41 41 41 41 41 42 42 42 41 42 42 42 41 41 41 40 40 40 39 39 40 39 38 39 39 40 40 40
47 48 49 48 47 46 46 45 45 45 44 44 44 44 43 42 42 42 42 42 42 42 42 42 43 43 42 42 42 42 41 40 40 40 41 41 41 40 39 40 41 42 41
46 46 47 47 47 46 47 46 46 46 46 46 46 45 44 44 43 42 41 41 41 42 42 42 43 43 42 42 41 42 41 41 41 41 41 42 42 42 42 41 41 42 42
45 46 46 47 47 47 47 47 46 46 47 47 47 46 46 46 45 43 43 42 42 42 41 41 41 42 42 42 42 42 42 42 41 42 42 43 43 43 44 43 42 42 42
45 46 47 47 47 48 48 48 48 47 47 47 47 47 47 46 45 45 44 44 44 43 43 42 42 43 43 42 42 42 42 43 43 43 43 44 44 44 44 45 44 43 43
42 44 46 47 47 47 48 48 48 48 48 47 47 46 46 46 46 46 45 44 44 43 43 43 43 43 43 43 43 44 44 43 44 44 44 44 45 45 45 45 45 46 45
39 42 44 44 46 47 48 47 47 47 48 48 47 46 46 46 46 46 45 45 45 45 44 44 43 43 43 43 44 44 44 44 44 44 43 44 44 44 44 45 46 46 46
38 40 42 43 44 45 46 46 47 47 46 47 48 47 46 46 46 45 44 45 45 45 45 44 43 44 44 44 44 45 44 44 45 45 45 45 45 44 44 45 46 46 46
36 38 40 42 43 43 45 46 46 47 46 46 46 47 47 46 46 45 45 46 46 45 44 44 43 44 44 43 43 43 43 44 45 46 46 46 45 45 45 45 46 46 47
37 38 40 41 42 42 44 45 45 46 46 46 46 45 45 45 44 44 45 45 45 44 44 44 44 44 44 43 42 42 43 44 45 45 45 46 46 46 46 46 46 46 47
36 37 38 40 40 41 42 42 43 44 45 44 44 44 45 44 44 44 45 45 45 44 44 45 45 44 43 42 42 42 42 43 43 44 45 45 45 46 46 46 45 45 46
34 35 37 38 39 40 41 42 43 44 44 44 44 44 44 43 43 44 44 44 44 44 44 44 44 44 44 43 43 43 43 43 44 45 45 45 44 44 44 44 44 45 46
34 35 36 37 38 39 39 40 42 43 44 45 45 44 45 45 45 45 44 45 44 43 42 42 43 43 43 44 44 44 44 44 44 45 45 45 43 43 43 44 44 45 46
34 35 36 36 37 37 38 39 40 41 43 43 44 44 45 45 45 45 44 43 43 43 43 43 43 43 43 43 44 44 45 45 45 44 45 45 44 44 44 45 45 45 46
31 34 35 36 37 38 39 39 40 41 42 43 44 44 44 44 44 45 44 43 43 43 43 43 44 44 44 45 45 44 45 45 45 45 44 44 43 43 43 43 44 45 46
30 31 33 35 37 38 39 39 40 42 42 43 43 43 44 44 44 44 44 43 43 44 44 44 43 43 43 43 43 44 44 43 43 43 43 43 43 43 43 43 44 45 45
30 31 32 33 35 37 37 39 41 42 43 42 42 42 43 44 44 43 43 43 43 43 43 43 43 43 43 43 43 43 42 42 42 43 42 42 43 44 44 44 44 44 43
30 31 32 33 34 35 36 37 38 39 40 40 40 41 42 43 43 42 43 43 43 42 43 42 42 43 43 42 41 41 41 41 41 41 42 43 43 44 44 45 44 42 41
30 31 31 32 33 33 34 34 35 37 38 38 39 39 40 41 41 41 41 42 42 42 42 42 42 42 42 42 41 41 41 41 41 41 42 42 43 44 44 43 42 41 40
30 30 31 31 32 32 32 32 34 35 35 36 37 37 38 38 39 40 40 41 41 42 42 42 42 42 42 41 41 41 41 40 40 41 41 42 42 43 42 40 40 39 39
31 31 31 31 31 33 33 33 34 34 34 34 35 35 36 37 38 39 39 39 40 40 41 40 41 41 41 41 41 41 41 40 39 39 41 41 41 40 39 39 38 38 39
30 31 31 31 31 32 32 32 33 33 33 33 34 34 35 36 37 38 39 39 39 40 40 40 40 40 40 40 40 40 40 40 39 39 40 40 39 38 37 37 38 38 38
30 30 30 31 30 30 31 31 31 31 32 32 33 34 34 34 35 36 37 38 38 39 39 39 39 39 39 39 39 39 39 39 39 39 38 38 38 37 37 37 37 37 37
31 31 30 30 30 30 30 31 31 32 32 32 33 33 34 34 35 35 36 36 36 37 37 37 37 37 38 38 38 37 37 37 37 37 37 37 37 36 36 36 36 36 36
Wind_Direction
232 231 232 232 234 236 237 238 240 242 244 247 249 251 253 254 256 257 260 262 264 265 266 267 268 269 271 272 274 275 277 280 281 282 283 284 284 286 287 288 289 291 292
232 231 232 233 234 237 238 239 241 243 246 248 251 252 254 256 256 259 261 262 264 265 267 267 268 269 271 273 274 276 277 278 279 281 283 284 285 285 286 288 289 290 291
232 232 232 234 235 237 238 240 242 244 246 248 251 252 255 257 259 260 262 263 263 265 267 267 269 270 272 274 275 276 277 278 279 281 283 283 283 284 285 287 288 289 290
233 232 233 235 236 237 239 240 243 245 247 249 251 254 256 259 261 261 263 264 265 266 267 267 268 269 271 273 274 275 276 277 279 281 282 283 283 283 285 286 288 288 289
233 234 235 236 237 238 240 242 244 246 248 250 252 254 257 259 260 261 262 263 265 267 267 268 269 270 270 272 273 274 275 278 279 280 281 282 283 284 286 287 287 288 289
234 235 236 237 238 239 240 242 244 246 248 249 251 254 257 258 259 261 262 263 266 268 267 269 269 271 272 273 273 274 276 278 279 280 282 282 284 285 287 288 288 288 289
236 236 237 238 239 240 242 243 244 246 248 249 252 255 256 257 258 261 263 264 266 267 268 271 270 271 273 274 275 276 277 278 279 280 282 283 285 285 287 287 287 287 289
238 237 238 239 241 242 242 242 244 246 249 251 252 255 256 257 259 262 263 264 265 267 269 271 271 271 272 274 275 276 276 278 279 280 281 283 284 286 287 287 288 288 289
240 239 240 240 241 242 243 244 245 247 250 252 253 254 255 257 260 261 263 265 265 266 268 270 272 273 274 275 275 275 276 278 279 281 281 284 285 286 287 288 288 288 289
241 241 240 241 243 244 245 245 246 248 251 253 253 253 254 257 259 261 263 264 265 267 269 271 272 272 274 276 277 277 276 277 279 281 282 284 284 285 286 287 287 287 289
241 240 240 241 243 244 246 247 248 248 251 251 252 254 256 257 260 262 263 264 266 268 270 272 272 273 275 277 278 277 277 278 279 281 283 285 285 284 286 288 288 288 289
243 244 244 243 244 245 247 248 249 250 251 252 253 255 256 259 261 262 264 265 267 269 270 271 272 274 276 276 277 278 278 279 280 282 284 285 285 284 285 287 288 288 289
246 247 248 246 246 247 247 248 250 251 251 253 253 255 258 260 261 263 265 266 267 269 270 271 272 273 274 275 275 277 279 281 282 284 284 285 285 285 285 286 287 288 290
248 249 249 248 247 249 250 250 251 252 252 253 254 255 257 259 262 263 264 266 267 269 270 272 272 272 273 274 276 278 279 282 283 283 284 285 285 285 286 287 288 289 290
252 251 250 250 250 250 251 252 252 253 253 254 254 256 257 259 262 264 265 267 268 269 270 271 272 273 273 276 277 278 280 282 283 284 284 285 285 285 286 288 289 290 292
255 253 252 252 252 251 252 253 254 253 254 254 255 257 259 260 262 263 265 266 267 268 269 270 271 273 274 276 277 279 281 282 283 284 284 285 285 286 288 289 290 292 294
257 255 254 254 254 254 255 256 257 256 256 257 258 258 259 261 263 264 265 265 266 268 269 270 272 274 275 276 278 279 281 282 283 284 285 284 285 288 289 290 291 292 294
259 257 256 256 255 256 255 255 257 257 258 259 260 260 260 262 263 264 265 266 267 268 270 271 273 274 275 276 277 279 280 282 283 283 284 284 286 287 288 290 292 293 294
261 260 260 259 258 257 256 256 256 256 257 258 259 261 262 262 263 264 265 266 266 267 270 271 272 273 274 276 278 278 278 280 281 281 282 285 286 287 287 290 292 293 292
262 262 262 260 259 258 257 256 256 256 256 257 259 260 262 263 264 265 265 266 267 268 269 270 271 273 274 276 277 277 278 279 280 281 283 285 287 288 289 291 292 291 291
263 263 262 261 260 259 258 257 257 257 257 257 259 260 262 263 264 265 266 267 267 268 269 270 270 272 273 274 275 276 277 278 280 281 283 285 287 288 290 291 290 290 291
266 264 263 262 260 259 258 259 260 259 259 260 261 262 262 263 264 265 266 267 267 268 269 269 270 271 272 273 274 275 277 279 280 281 283 285 287 289 289 289 289 289 291
267 266 265 264 262 260 259 260 261 260 260 262 263 264 265 265 265 266 267 268 268 269 270 270 271 271 271 273 274 274 276 279 280 281 283 284 286 288 288 289 289 290 291
267 266 264 263 262 260 261 262 263 263 263 263 264 265 266 266 266 267 268 268 268 269 270 271 271 270 272 274 274 274 276 278 279 281 282 284 286 287 287 288 289 290 292
268 267 265 263 261 261 261 262 262 264 264 264 265 266 267 267 268 269 269 270 270 270 271 270 270 271 272 273 275 276 277 279 279 280 282 283 284 285 286 287 288 289 291
269 268 268 266 263 262 263 262 263 264 265 266 267 268 269 268 269 269 270 269 269 270 270 270 271 271 272 273 275 277 278 278 279 280 282 283 283 284 285 287 288 290 291
Height
5740 5746 5752 5757 5762 5767 5772 5776 5781 5784 5788 5790 5793 5794 5796 5798 5800 5801 5802 5803 5804 5804 5805 5805 5805 5805 5805 5805 5804 5804 5804 5803 5802 5802 5802 5801 5800 5798 5797 5795 5794 5792 5790
5731 5738 5743 5749 5754 5759 5763 5768 5772 5776 5779 5782 5784 5786 5788 5790 5791 5792 5793 5794 5794 5795 5796 5796 5796 5796 5796 5796 5796 5796 5795 5795 5794 5794 5793 5793 5792 5790 5789 5787 5786 5784 5782
5722 5728 5734 5739 5744 5749 5754 5758 5763 5766 5769 5772 5775 5777 5779 5780 5782 5783 5783 5784 5784 5785 5786 5786 5787 5787 5787 5787 5787 5787 5787 5786 5786 5785 5784 5783 5783 5782 5781 5779 5777 5775 5773
5712 5718 5724 5729 5735 5740 5745 5749 5753 5757 5760 5763 5765 5767 5769 5771 5772 5773 5774 5774 5775 5776 5777 5777 5777 5777 5777 5777 5778 5778 5777 5777 5777 5776 5775 5774 5773 5772 5772 5771 5768 5766 5764
5703 5709 5715 5720 5725 5730 5735 5740 5744 5747 5750 5753 5755 5757 5759 5760 5762 5763 5764 5765 5766 5766 5767 5767 5767 5767 5768 5768 5768 5768 5768 5768 5767 5767 5766 5764 5763 5762 5761 5761 5760 5757 5755
5695 5700 5705 5710 5715 5721 5725 5730 5734 5737 5740 5742 5745 5747 5749 5750 5752 5753 5755 5756 5756 5756 5757 5757 5758 5758 5758 5758 5759 5759 5758 5758 5758 5757 5756 5755 5754 5752 5751 5750 5749 5748 5745
5685 5690 5696 5700 5705 5711 5715 5720 5724 5727 5729 5731 5734 5737 5739 5740 5742 5743 5745 5746 5747 5747 5747 5747 5748 5748 5749 5749 5749 5749 5749 5748 5748 5747 5746 5745 5744 5742 5740 5739 5738 5737 5735
5676 5681 5686 5691 5695 5700 5705 5709 5713 5717 5719 5721 5724 5727 5729 5730 5732 5733 5735 5736 5737 5737 5737 5737 5738 5738 5739 5739 5739 5739 5739 5739 5738 5737 5736 5735 5733 5731 5730 5728 5727 5725 5725
5668 5672 5677 5682 5686 5690 5695 5699 5703 5706 5709 5711 5713 5717 5719 5720 5722 5723 5724 5725 5727 5727 5728 5728 5729 5729 5729 5729 5729 5729 5729 5728 5727 5726 5725 5724 5722 5720 5719 5717 5715 5714 5713
5660 5664 5668 5673 5677 5681 5685 5689 5692 5696 5698 5701 5703 5706 5708 5710 5712 5713 5714 5715 5716 5717 5718 5718 5719 5719 5719 5718 5718 5718 5718 5717 5717 5716 5715 5713 5711 5710 5708 5706 5704 5701 5700
5653 5656 5660 5663 5667 5670 5674 5678 5682 5685 5688 5690 5692 5695 5697 5699 5701 5703 5704 5705 5705 5706 5707 5708 5708 5708 5708 5708 5708 5708 5707 5707 5706 5705 5704 5702 5701 5699 5697 5694 5692 5690 5687
5645 5648 5651 5654 5657 5661 5665 5668 5671 5674 5677 5680 5682 5685 5687 5689 5691 5692 5693 5694 5695 5696 5697 5697 5698 5698 5698 5698 5697 5697 5697 5696 5695 5694 5692 5691 5689 5687 5685 5683 5680 5678 5675
5637 5640 5642 5645 5649 5652 5656 5658 5662 5664 5667 5669 5672 5675 5677 5679 5680 5682 5683 5684 5685 5685 5686 5687 5687 5688 5688 5688 5687 5686 5686 5685 5684 5683 5681 5679 5677 5675 5673 5671 5668 5666 5663
5629 5632 5634 5638 5641 5643 5646 5649 5652 5654 5656 5659 5662 5664 5666 5668 5669 5671 5672 5673 5674 5675 5675 5676 5676 5677 5677 5677 5676 5676 5675 5674 5673 5671 5670 5668 5666 5664 5662 5659 5657 5654 5651
5622 5624 5626 5629 5631 5634 5636 5639 5641 5643 5646 5649 5651 5653 5655 5657 5658 5660 5661 5662 5663 5664 5665 5665 5665 5665 5666 5666 5665 5665 5664 5663 5662 5660 5658 5656 5654 5652 5650 5648 5645 5642 5639
5613 5615 5618 5620 5622 5625 5627 5629 5631 5633 5635 5638 5640 5642 5644 5646 5647 5648 5650 5651 5652 5653 5653 5654 5654 5654 5654 5654 5654 5653 5653 5652 5651 5649 5647 5645 5643 5641 5639 5636 5634 5631 5627
5605 5607 5609 5611 5613 5615 5617 5619 5621 5623 5625 5627 5629 5631 5633 5634 5635 5637 5638 5639 5640 5641 5642 5642 5643 5643 5643 5643 5642 5641 5641 5640 5639 5638 5636 5634 5632 5630 5628 5625 5622 5619 5615
5597 5598 5600 5601 5603 5605 5607 5609 5610 5612 5614 5616 5618 5619 5621 5623 5625 5626 5627 5628 5629 5630 5631 5631 5631 5632 5632 5631 5630 5630 5629 5628 5627 5626 5625 5623 5621 5619 5616 5614 5611 5608 5604
5589 5591 5591 5592 5593 5595 5596 5598 5599 5601 5603 5605 5607 5609 5610 5612 5613 5614 5616 5617 5618 5619 5619 5620 5620 5620 5620 5620 5619 5618 5618 5617 5616 5615 5613 5611 5610 5608 5605 5603 5600 5597 5594
5581 5582 5583 5583 5584 5585 5586 5588 5589 5590 5592 5594 5596 5597 5599 5600 5602 5603 5604 5605 5606 5607 5608 5608 5608 5609 5609 5608 5608 5607 5607 5606 5606 5604 5602 5600 5598 5596 5593 5591 5588 5586 5583
5573 5573 5574 5574 5575 5575 5576 5578 5579 5580 5582 5584 5585 5586 5588 5589 5590 5592 5593 5594 5595 5596 5596 5597 5597 5597 5597 5597 5597 5596 5595 5595 5594 5593 5592 5590 5587 5585 5582 5579 5577 5575 5572
5565 5564 5565 5565 5565 5566 5567 5568 5569 5570 5572 5574 5575 5576 5577 5578 5579 5580 5581 5582 5583 5584 5585 5585 5586 5586 5586 5585 5585 5585 5584 5583 5583 5582 5580 5578 5576 5574 5571 5569 5566 5564 5561
5556 5556 5556 5556 5557 5557 5558 5559 5560 5561 5562 5564 5565 5566 5567 5568 5569 5569 5570 5571 5572 5572 5573 5573 5574 5574 5574 5574 5574 5574 5573 5572 5571 5571 5569 5567 5565 5563 5561 5558 5556 5554 5551
5547 5547 5547 5548 5548 5549 5550 5550 5551 5552 5553 5554 5555 5556 5557 5558 5558 5559 5559 5560 5561 5561 5562 5562 5563 5563 5563 5563 5563 5562 5562 5561 5560 5559 5558 5556 5554 5552 5550 5548 5546 5543 5541
5539 5539 5539 5539 5540 5540 5541 5542 5542 5543 5544 5545 5546 5546 5547 5547 5548 5548 5549 5549 5550 5550 5551 5551 5551 5552 5552 5552 5552 5551 5551 5550 5550 5548 5547 5546 5544 5542 5540 5538 5536 5533 5531
5530 5530 5530 5530 5531 5532 5533 5533 5534 5534 5535 5536 5536 5537 5537 5537 5538 5538 5539 5539 5539 5540 5540 5540 5540 5540 5541 5541 5541 5540 5540 5539 5538 5537 5536 5535 5533 5532 5530 5528 5526 5524 5522